Regional Weather Roundup
Issued by NWS Sterling, VA

Home | Current Version | Previous Version | Graphics & Text | Print | Product List | Glossary On
Versions: 1 2 3 4 5 6 7 8 9 10 11 12 13 14 15 16 17 18 19 20 21 22 23 24 25 26 27 28 29 30 31 32 33 34 35 36 37 38 39 40 41 42 43 44 45 46 47 48 49 50
000
ASUS41 KLWX 301510
RWRLWX

REGIONAL WEATHER ROUNDUP
NATIONAL WEATHER SERVICE BALTIMORE MD/WASHINGTON DC
1100 AM EDT SUN AUG 30 2015

Note: "FAIR" indicates few or no clouds below 12,000 feet
with no significant weather and/or obstructions to visibility.
 TC=TEMPERATURE CELSIUS

 * =Non NWS site. Station does not report precipitation (e.g. rain,
    snow, etc.), thunder, or fog.

DCZ001-MDZ009-015-VAZ040>042-051-053>054-301600-
WASHINGTON METRO

CITY           SKY/WX    TMP DP  RH WIND       PRES   REMARKS
WASHINGTON NAT CLOUDY    76  65  68 SW6       30.15S
DULLES         CLOUDY    76  65  68 SW3       30.14S
ANDREWS AFB    CLOUDY    76  65  68 S3        30.14S
FT BELVOIR     CLOUDY    74  65  72 VRB2      30.14S
QUANTICO       CLOUDY    73  64  73 CALM      30.15S
COLLEGE PARK*  CLOUDY    77  64  65 CALM      30.14S
LEESBURG*      PTSUNNY   79  70  73 SW6       30.16R
MANASSAS*      SUNNY     73  68  83 CALM      30.15S
GAITHERSBURG*  MOSUNNY   81  64  57 W3        30.18S

$$

MDZ006>007-011-014-301600-
BALTIMORE METRO

CITY           SKY/WX    TMP DP  RH WIND       PRES   REMARKS
BWI AIRPORT    PTSUNNY   77  65  66 SW3       30.13S
MD SCIENCE CTR   N/A     80  65  59 MISG      30.13S
MARTIN STATE   SUNNY     79  70  73 SE5       30.15S
ANNAPOLIS      PTSUNNY   76  63  64 VRB3      30.13S
FORT MEADE*    MOSUNNY   73  64  73 SW3       30.16S

$$

MDZ012-015-019>023-301600-
MARYLAND EASTERN SHORE

CITY           SKY/WX    TMP DP  RH WIND       PRES   REMARKS
OCEAN CITY     CLOUDY    80  63  55 SW6       30.16S
SALISBURY      CLOUDY    77  68  73 SW5       30.16R
BAY BRIDGE AP*   N/A     75  63  64 S6        30.15S
CAMBRIDGE*     PTSUNNY   77  64  65 S3        30.15S
EASTON*        MOSUNNY   81  64  57 SW8       30.19R

$$

MDZ017>025-301600-
SOUTHERN MARYLAND

CITY           SKY/WX    TMP DP  RH WIND       PRES   REMARKS
PATUXENT RIVER CLOUDY    75  63  66 SW5       30.15S
ST INIGOES     CLOUDY    76  65  68 VRB3      30.15S
LEONARDTOWN*   CLOUDY    73  61  64 CALM      30.17S

$$

MDZ003>005-301600-
NORTH CENTRAL MARYLAND

CITY           SKY/WX    TMP DP  RH WIND       PRES   REMARKS
FREDERICK*     SUNNY     75  70  83 SW5       30.16R
HAGERSTOWN APT MOSUNNY   80  62  54 VRB5      30.14S
WESTMINSTER*   MOSUNNY   81  66  61 CALM      30.15R

$$

MDZ501>502-301600-
WESTERN MARYLAND

CITY           SKY/WX    TMP DP  RH WIND       PRES   REMARKS
OAKLAND*       MOSUNNY   72  61  68 SW7       30.25R
CUMBERLAND*    MOSUNNY   77  64  65 CALM      30.19F

$$

VAZ025>031-301600-
SHENANDOAH VALLEY

CITY           SKY/WX    TMP DP  RH WIND       PRES   REMARKS
WINCHESTER*    MOSUNNY   81  63  54 S5        30.16R
FRONT ROYAL*   FAIR      79  63  57 S3        30.15S
LURAY*         FAIR      77  63  61 SW5       30.17S
NEW MARKET*    FAIR      76  65  67 CALM      30.16S
STAUNTON*      CLOUDY    77  64  63 CALM      30.21S
WAYNESBORO*    FAIR      78  63  61 S3        30.21R

$$

WVZ021-048>050-054>055-301600-
EASTERN WEST VIRGINIA PANHANDLE

CITY           SKY/WX    TMP DP  RH WIND       PRES   REMARKS
MARTINSBURG    MOSUNNY   82  64  54 CALM      30.15S
PETERSBURG*    PTSUNNY   74  63  70 CALM      30.18S

$$

VAZ036>039-050-301600-
CENTRAL FOOTHILLS

CITY           SKY/WX    TMP DP  RH WIND       PRES   REMARKS
CHARLOTTESVILL CLOUDY    78  66  66 CALM      30.16R
CULPEPER*      CLOUDY    74  67  77 S3        30.15F
ORANGE*        CLOUDY    77  64  65 CALM      30.16S
GORDONSVILLE*  FAIR      76  66  73 CALM      30.15S
WARRENTON*     FAIR      76  68  76 CALM      30.15S

$$

VAZ055>057-301600-
NORTH AND CENTRAL PIEDMONT

CITY           SKY/WX    TMP DP  RH WIND       PRES   REMARKS
FREDERICKSBRG* CLOUDY    77  67  69 CALM      30.14S
STAFFORD*      CLOUDY    73  64  74 CALM      30.19S

$$

NCZ024-NYZ072-PAZ021-071-VAZ022-071-301600-
OTHER REGIONAL OBSERVATIONS

CITY           SKY/WX    TMP DP  RH WIND       PRES   REMARKS
NEW YORK CITY  SUNNY     83  63  50 CALM      30.13F
PHILADELPHIA   PTSUNNY   81  64  56 SW8       30.13F
PITTSBURGH     PTSUNNY   72  66  81 SE5       30.15R
ROANOKE        CLOUDY    77  63  61 W5        30.21S
RICHMOND       PTSUNNY   84  62  47 SW6       30.16R
RALEIGH        CLOUDY    81  62  52 VRB3      30.20R

$$

ANZ530>537-301600-
MARINE OBSERVATIONS

STATION/POSITION TIME  TEMP    WIND        PRES
                       AIR SEA DIR/SP/G
                 (UTC) (F)     (DEG/KT/KT) (MB)
THOMAS PT LIGHT  NOT AVBL

$$




USA.gov is the U.S. government's official web portal to all federal, state and local government web resources and services.